Time,TemperatureF,DewpointF,PressureIn,WindDirection,WindDirectionDegrees,WindSpeedMPH,WindSpeedGustMPH,Humidity,HourlyPrecipIn,Conditions,Clouds,dailyrainin,SolarRadiationWatts/m^2,SoftwareType,DateUTC
2013-07-21 00:05:00,72.5,67.4,29.91,East,79,5.0,10.0,84,0.00,,,0.00,0,Wunderground v.1.15,2013-07-21 05:05:00,
2013-07-21 00:11:00,72.6,67.5,29.92,East,100,5.0,10.0,84,0.00,,,0.00,0,Wunderground v.1.15,2013-07-21 05:11:00,
2013-07-21 00:17:00,72.6,67.5,29.92,ESE,120,5.0,9.0,84,0.00,,,0.00,0,Wunderground v.1.15,2013-07-21 05:17:00,
2013-07-21 00:23:00,72.7,67.6,29.92,SE,127,6.0,8.0,84,0.00,,,0.00,0,Wunderground v.1.15,2013-07-21 05:23:00,
2013-07-21 00:29:00,72.8,67.3,29.92,ESE,110,6.0,8.0,83,0.00,,,0.00,0,Wunderground v.1.15,2013-07-21 05:29:00,
2013-07-21 00:35:00,72.8,67.3,29.92,ESE,122,6.0,8.0,83,0.00,,,0.00,0,Wunderground v.1.15,2013-07-21 05:35:00,
2013-07-21 00:41:00,72.9,67.4,29.93,SE,128,7.0,11.0,83,0.00,,,0.00,0,Wunderground v.1.15,2013-07-21 05:41:00,
2013-07-21 00:47:00,73.0,67.5,29.93,SE,125,8.0,9.0,83,0.00,,,0.00,0,Wunderground v.1.15,2013-07-21 05:47:00,
2013-07-21 00:53:00,73.0,67.5,29.93,SE,141,6.0,6.0,83,0.00,,,0.00,0,Wunderground v.1.15,2013-07-21 05:53:00,
2013-07-21 00:59:00,73.0,67.5,29.93,SE,133,6.0,6.0,83,0.00,,,0.00,0,Wunderground v.1.15,2013-07-21 05:59:00,
2013-07-21 01:05:00,73.0,67.9,29.93,ESE,115,7.0,9.0,84,0.00,,,0.00,0,Wunderground v.1.15,2013-07-21 06:05:00,
2013-07-21 01:11:00,73.0,67.9,29.93,SE,134,7.0,9.0,84,0.00,,,0.00,0,Wunderground v.1.15,2013-07-21 06:11:00,
2013-07-21 01:17:00,73.0,67.9,29.93,SE,137,7.0,11.0,84,0.00,,,0.00,0,Wunderground v.1.15,2013-07-21 06:17:00,
2013-07-21 01:23:00,73.0,67.9,29.92,SE,127,7.0,11.0,84,0.00,,,0.00,0,Wunderground v.1.15,2013-07-21 06:23:00,
2013-07-21 01:29:00,72.9,67.8,29.93,ESE,116,8.0,11.0,84,0.00,,,0.00,0,Wunderground v.1.15,2013-07-21 06:29:00,
2013-07-21 01:35:00,72.9,67.8,29.93,ESE,121,7.0,9.0,84,0.00,,,0.00,0,Wunderground v.1.15,2013-07-21 06:35:00,
2013-07-21 01:41:00,72.9,68.1,29.93,SE,125,7.0,10.0,85,0.00,,,0.00,0,Wunderground v.1.15,2013-07-21 06:41:00,
2013-07-21 01:47:00,72.8,68.0,29.93,SE,145,8.0,13.0,85,0.00,,,0.00,0,Wunderground v.1.15,2013-07-21 06:47:00,
2013-07-21 01:53:00,72.8,68.0,29.92,SE,124,7.0,7.0,85,0.00,,,0.00,0,Wunderground v.1.15,2013-07-21 06:53:00,
2013-07-21 01:59:00,72.8,67.7,29.93,SE,134,6.0,13.0,84,0.00,,,0.00,0,Wunderground v.1.15,2013-07-21 06:59:00,
2013-07-21 02:05:00,72.8,68.0,29.93,ESE,104,6.0,13.0,85,0.00,,,0.00,0,Wunderground v.1.15,2013-07-21 07:05:00,
2013-07-21 02:11:00,72.9,68.1,29.92,ESE,115,4.0,13.0,85,0.00,,,0.00,0,Wunderground v.1.15,2013-07-21 07:11:00,
2013-07-21 02:17:00,72.8,68.0,29.92,ESE,117,4.0,13.0,85,0.00,,,0.00,0,Wunderground v.1.15,2013-07-21 07:17:00,
2013-07-21 02:25:00,72.7,67.9,29.91,SE,141,5.0,13.0,85,0.33,,,0.03,0,Wunderground v.1.15,2013-07-21 07:25:00,
2013-07-21 02:31:00,72.5,67.7,29.91,ESE,123,7.0,13.0,85,0.23,,,0.06,0,Wunderground v.1.15,2013-07-21 07:31:00,
2013-07-21 02:37:00,72.1,67.3,29.91,ESE,114,7.0,13.0,85,0.23,,,0.08,0,Wunderground v.1.15,2013-07-21 07:37:00,
2013-07-21 02:43:00,71.9,67.5,29.90,ESE,114,5.0,5.0,86,0.13,,,0.10,0,Wunderground v.1.15,2013-07-21 07:43:00,
2013-07-21 02:49:00,71.6,67.2,29.89,ESE,109,5.0,13.0,86,0.08,,,0.10,0,Wunderground v.1.15,2013-07-21 07:49:00,
2013-07-21 02:55:00,71.4,67.0,29.89,SE,126,5.0,13.0,86,0.05,,,0.10,0,Wunderground v.1.15,2013-07-21 07:55:00,
2013-07-21 03:01:00,71.3,66.9,29.90,East,99,4.0,13.0,86,0.00,,,0.10,0,Wunderground v.1.15,2013-07-21 08:01:00,
2013-07-21 03:07:00,71.1,67.0,29.90,East,95,4.0,13.0,87,0.00,,,0.10,0,Wunderground v.1.15,2013-07-21 08:07:00,
2013-07-21 03:29:00,70.9,66.8,29.92,South,175,4.0,13.0,87,0.83,,,0.36,0,Wunderground v.1.15,2013-07-21 08:29:00,
2013-07-21 03:35:00,70.9,67.2,29.92,SSW,208,4.0,13.0,88,0.23,,,0.39,0,Wunderground v.1.15,2013-07-21 08:35:00,
2013-07-21 03:41:00,70.8,67.1,29.92,SSW,207,2.0,13.0,88,0.57,,,0.42,0,Wunderground v.1.15,2013-07-21 08:41:00,
2013-07-21 03:47:00,70.8,67.1,29.92,SSW,207,0.0,13.0,88,0.16,,,0.43,0,Wunderground v.1.15,2013-07-21 08:47:00,
2013-07-21 03:53:00,70.9,67.2,29.92,SSW,207,0.0,13.0,88,0.21,,,0.46,0,Wunderground v.1.15,2013-07-21 08:53:00,
2013-07-21 03:59:00,70.9,67.2,29.91,SSE,154,2.0,13.0,88,0.10,,,0.46,0,Wunderground v.1.15,2013-07-21 08:59:00,
2013-07-21 04:05:00,70.9,67.2,29.91,SSE,150,4.0,13.0,88,0.10,,,0.47,0,Wunderground v.1.15,2013-07-21 09:05:00,
2013-07-21 04:11:00,70.9,67.5,29.91,SSE,160,5.0,13.0,89,0.05,,,0.48,0,Wunderground v.1.15,2013-07-21 09:11:00,
2013-07-21 04:17:00,70.9,67.5,29.91,SSE,158,6.0,13.0,89,0.05,,,0.48,0,Wunderground v.1.15,2013-07-21 09:17:00,
2013-07-21 04:23:00,71.0,67.6,29.91,SSE,147,6.0,13.0,89,0.05,,,0.48,0,Wunderground v.1.15,2013-07-21 09:23:00,
2013-07-21 04:29:00,71.0,67.6,29.91,SE,131,6.0,13.0,89,0.00,,,0.48,0,Wunderground v.1.15,2013-07-21 09:29:00,
2013-07-21 04:35:00,71.0,67.6,29.90,SE,143,6.0,13.0,89,0.00,,,0.49,0,Wunderground v.1.15,2013-07-21 09:35:00,
2013-07-21 04:41:00,71.0,67.6,29.90,SE,126,6.0,13.0,89,0.00,,,0.49,0,Wunderground v.1.15,2013-07-21 09:41:00,
2013-07-21 04:47:00,70.9,67.5,29.90,SE,131,7.0,13.0,89,0.00,,,0.49,0,Wunderground v.1.15,2013-07-21 09:47:00,
2013-07-21 04:53:00,70.9,67.5,29.90,SE,135,6.0,13.0,89,0.00,,,0.49,0,Wunderground v.1.15,2013-07-21 09:53:00,
2013-07-21 04:59:00,70.9,67.2,29.91,SE,125,6.0,13.0,88,0.00,,,0.49,0,Wunderground v.1.15,2013-07-21 09:59:00,
2013-07-21 05:05:00,71.0,67.3,29.91,SE,135,6.0,13.0,88,0.00,,,0.49,0,Wunderground v.1.15,2013-07-21 10:05:00,
2013-07-21 05:11:00,70.9,67.2,29.91,SSE,152,6.0,13.0,88,0.00,,,0.49,0,Wunderground v.1.15,2013-07-21 10:11:00,
2013-07-21 05:17:00,71.0,67.3,29.91,SSE,154,5.0,13.0,88,0.00,,,0.49,0,Wunderground v.1.15,2013-07-21 10:17:00,
2013-07-21 05:23:00,71.0,67.3,29.91,SSE,160,5.0,13.0,88,0.33,,,0.52,0,Wunderground v.1.15,2013-07-21 10:23:00,
2013-07-21 05:29:00,70.9,67.2,29.90,SSE,148,6.0,13.0,88,0.56,,,0.55,0,Wunderground v.1.15,2013-07-21 10:29:00,
2013-07-21 05:35:00,70.9,67.2,29.90,SSE,149,7.0,13.0,88,0.25,,,0.58,0,Wunderground v.1.15,2013-07-21 10:35:00,
2013-07-21 05:41:00,70.8,67.4,29.90,SE,139,7.0,13.0,89,0.09,,,0.59,0,Wunderground v.1.15,2013-07-21 10:41:00,
2013-07-21 05:47:00,70.8,67.4,29.90,SE,125,6.0,13.0,89,0.09,,,0.59,0,Wunderground v.1.15,2013-07-21 10:47:00,
2013-07-21 05:53:00,70.8,67.4,29.90,SE,145,7.0,7.0,89,0.05,,,0.59,0,Wunderground v.1.15,2013-07-21 10:53:00,
2013-07-21 05:59:00,70.8,67.4,29.90,SE,139,7.0,13.0,89,0.00,,,0.59,0,Wunderground v.1.15,2013-07-21 10:59:00,
2013-07-21 06:05:00,70.8,67.4,29.90,SE,145,5.0,13.0,89,0.00,,,0.59,0,Wunderground v.1.15,2013-07-21 11:05:00,
2013-07-21 06:11:00,70.7,67.3,29.90,SE,133,5.0,13.0,89,0.00,,,0.59,0,Wunderground v.1.15,2013-07-21 11:11:00,
2013-07-21 06:17:00,70.6,67.2,29.90,SE,124,5.0,13.0,89,0.00,,,0.59,0,Wunderground v.1.15,2013-07-21 11:17:00,
2013-07-21 06:23:00,70.6,67.2,29.90,SE,129,5.0,5.0,89,0.00,,,0.59,0,Wunderground v.1.15,2013-07-21 11:23:00,
2013-07-21 06:29:00,70.4,66.7,29.91,SE,125,5.0,13.0,88,0.00,,,0.59,0,Wunderground v.1.15,2013-07-21 11:29:00,
2013-07-21 06:35:00,70.3,66.6,29.91,SE,136,5.0,6.0,88,0.00,,,0.59,0,Wunderground v.1.15,2013-07-21 11:35:00,
2013-07-21 06:41:00,70.2,66.5,29.91,SE,127,4.0,13.0,88,0.00,,,0.59,0,Wunderground v.1.15,2013-07-21 11:41:00,
2013-07-21 06:47:00,70.2,66.5,29.91,SE,134,4.0,13.0,88,0.00,,,0.59,0,Wunderground v.1.15,2013-07-21 11:47:00,
2013-07-21 06:55:00,70.3,66.6,29.91,South,175,5.0,13.0,88,0.00,,,0.59,0,Wunderground v.1.15,2013-07-21 11:55:00,
2013-07-21 07:01:00,70.3,66.9,29.92,SE,127,6.0,13.0,89,0.00,,,0.59,0,Wunderground v.1.15,2013-07-21 12:01:00,
2013-07-21 07:07:00,70.4,67.0,29.92,SE,137,5.0,13.0,89,0.00,,,0.59,0,Wunderground v.1.15,2013-07-21 12:07:00,
2013-07-21 07:13:00,70.4,67.0,29.92,SE,134,4.0,13.0,89,0.00,,,0.59,5,Wunderground v.1.15,2013-07-21 12:13:00,
2013-07-21 07:19:00,70.4,67.0,29.92,SSE,147,4.0,13.0,89,0.00,,,0.59,7,Wunderground v.1.15,2013-07-21 12:19:00,
2013-07-21 07:25:00,70.4,67.0,29.92,SE,131,4.0,6.0,89,0.00,,,0.59,19,Wunderground v.1.15,2013-07-21 12:25:00,
2013-07-21 07:31:00,70.4,67.0,29.92,SE,138,5.0,13.0,89,0.00,,,0.59,35,Wunderground v.1.15,2013-07-21 12:31:00,
2013-07-21 07:37:00,70.5,67.1,29.92,SSE,147,6.0,13.0,89,0.00,,,0.59,60,Wunderground v.1.15,2013-07-21 12:37:00,
2013-07-21 07:43:00,70.6,67.2,29.92,SE,142,7.0,13.0,89,0.00,,,0.59,60,Wunderground v.1.15,2013-07-21 12:43:00,
2013-07-21 07:49:00,70.7,67.3,29.91,SSE,155,6.0,13.0,89,0.00,,,0.59,33,Wunderground v.1.15,2013-07-21 12:49:00,
2013-07-21 07:55:00,70.8,67.4,29.92,SE,145,3.0,13.0,89,0.00,,,0.59,40,Wunderground v.1.15,2013-07-21 12:55:00,
2013-07-21 08:01:00,70.9,67.5,29.92,SE,144,2.0,13.0,89,0.00,,,0.59,39,Wunderground v.1.15,2013-07-21 13:01:00,
2013-07-21 08:07:00,71.0,67.3,29.92,SE,144,2.0,13.0,88,0.00,,,0.59,32,Wunderground v.1.15,2013-07-21 13:07:00,
2013-07-21 08:13:00,71.1,67.4,29.92,SE,144,3.0,3.0,88,0.00,,,0.59,53,Wunderground v.1.15,2013-07-21 13:13:00,
2013-07-21 08:19:00,71.0,67.3,29.92,ESE,116,3.0,13.0,88,0.00,,,0.59,44,Wunderground v.1.15,2013-07-21 13:19:00,
2013-07-21 08:25:00,71.0,67.3,29.92,SE,135,4.0,13.0,88,0.00,,,0.59,77,Wunderground v.1.15,2013-07-21 13:25:00,
2013-07-21 08:31:00,71.2,67.5,29.92,ESE,122,4.0,13.0,88,0.00,,,0.59,69,Wunderground v.1.15,2013-07-21 13:31:00,
2013-07-21 08:37:00,71.2,67.5,29.92,SE,127,5.0,13.0,88,0.00,,,0.59,86,Wunderground v.1.15,2013-07-21 13:37:00,
2013-07-21 08:43:00,71.3,67.6,29.92,ESE,122,5.0,13.0,88,0.00,,,0.59,100,Wunderground v.1.15,2013-07-21 13:43:00,
2013-07-21 08:49:00,71.3,67.6,29.92,SE,137,5.0,13.0,88,0.00,,,0.59,118,Wunderground v.1.15,2013-07-21 13:49:00,
2013-07-21 08:55:00,71.6,67.5,29.92,SE,133,6.0,13.0,87,0.00,,,0.59,183,Wunderground v.1.15,2013-07-21 13:55:00,
2013-07-21 09:01:00,71.9,67.8,29.92,SE,142,5.0,13.0,87,0.00,,,0.59,248,Wunderground v.1.15,2013-07-21 14:01:00,
2013-07-21 09:07:00,72.6,68.5,29.92,SE,143,5.0,13.0,87,0.00,,,0.59,199,Wunderground v.1.15,2013-07-21 14:07:00,
2013-07-21 09:13:00,72.8,68.4,29.93,SSE,151,5.0,5.0,86,0.00,,,0.59,179,Wunderground v.1.15,2013-07-21 14:13:00,
2013-07-21 09:19:00,72.8,68.0,29.93,SE,141,7.0,13.0,85,0.00,,,0.59,234,Wunderground v.1.15,2013-07-21 14:19:00,
2013-07-21 09:25:00,72.8,67.7,29.93,SSE,157,6.0,13.0,84,0.00,,,0.59,216,Wunderground v.1.15,2013-07-21 14:25:00,
2013-07-21 09:31:00,72.9,67.8,29.93,SSE,166,7.0,13.0,84,0.00,,,0.59,251,Wunderground v.1.15,2013-07-21 14:31:00,
2013-07-21 09:37:00,73.1,68.0,29.93,SE,145,7.0,13.0,84,0.00,,,0.59,276,Wunderground v.1.15,2013-07-21 14:37:00,
2013-07-21 09:43:00,73.4,67.9,29.93,SE,145,6.0,6.0,83,0.00,,,0.59,214,Wunderground v.1.15,2013-07-21 14:43:00,
2013-07-21 09:49:00,73.2,67.7,29.93,SSE,150,6.0,13.0,83,0.00,,,0.59,158,Wunderground v.1.15,2013-07-21 14:49:00,
2013-07-21 09:55:00,73.1,67.6,29.93,SE,129,7.0,13.0,83,0.00,,,0.59,243,Wunderground v.1.15,2013-07-21 14:55:00,
2013-07-21 10:01:00,74.1,69.0,29.92,SE,145,6.0,13.0,84,0.00,,,0.59,468,Wunderground v.1.15,2013-07-21 15:01:00,
2013-07-21 10:08:00,74.2,68.7,29.92,SSE,152,6.0,13.0,83,0.00,,,0.59,306,Wunderground v.1.15,2013-07-21 15:08:00,
2013-07-21 10:13:00,74.5,69.0,29.92,SE,137,6.0,6.0,83,0.00,,,0.59,278,Wunderground v.1.15,2013-07-21 15:13:00,
2013-07-21 10:19:00,74.5,68.6,29.92,SE,131,5.0,9.0,82,0.00,,,0.59,253,Wunderground v.1.15,2013-07-21 15:19:00,
2013-07-21 10:25:00,75.0,69.1,29.92,SE,141,5.0,5.0,82,0.00,,,0.59,236,Wunderground v.1.15,2013-07-21 15:25:00,
2013-07-21 11:05:00,79.2,70.6,29.92,SSE,154,9.0,13.0,75,0.00,,,0.59,740,Wunderground v.1.15,2013-07-21 16:05:00,
2013-07-21 11:11:00,79.2,71.0,29.92,SE,134,8.0,13.0,76,0.00,,,0.59,334,Wunderground v.1.15,2013-07-21 16:11:00,
2013-07-21 11:17:00,79.0,70.4,29.92,SSE,165,7.0,14.0,75,0.00,,,0.59,403,Wunderground v.1.15,2013-07-21 16:17:00,
2013-07-21 11:23:00,80.0,71.4,29.92,SSE,162,8.0,14.0,75,0.00,,,0.59,735,Wunderground v.1.15,2013-07-21 16:23:00,
2013-07-21 11:29:00,80.3,71.3,29.92,SSE,164,9.0,13.0,74,0.00,,,0.59,765,Wunderground v.1.15,2013-07-21 16:29:00,
2013-07-21 11:35:00,80.8,71.7,29.92,South,185,8.0,8.0,74,0.00,,,0.59,854,Wunderground v.1.15,2013-07-21 16:35:00,
2013-07-21 11:41:00,80.9,71.4,29.92,South,170,7.0,13.0,73,0.00,,,0.59,417,Wunderground v.1.15,2013-07-21 16:41:00,
2013-07-21 11:47:00,81.1,71.6,29.92,SSE,164,9.0,13.0,73,0.00,,,0.59,974,Wunderground v.1.15,2013-07-21 16:47:00,
2013-07-21 11:53:00,81.7,71.8,29.92,South,175,10.0,10.0,72,0.00,,,0.59,911,Wunderground v.1.15,2013-07-21 16:53:00,
2013-07-21 11:59:00,81.4,71.1,29.92,SSE,162,7.0,13.0,71,0.00,,,0.59,322,Wunderground v.1.15,2013-07-21 16:59:00,
2013-07-21 12:05:00,81.7,71.8,29.91,SSE,164,6.0,13.0,72,0.00,,,0.59,991,Wunderground v.1.15,2013-07-21 17:05:00,
2013-07-21 12:11:00,82.4,72.0,29.92,SSE,151,8.0,15.0,71,0.00,,,0.59,1035,Wunderground v.1.15,2013-07-21 17:11:00,
2013-07-21 12:17:00,82.0,71.7,29.91,SSE,150,7.0,13.0,71,0.00,,,0.59,1035,Wunderground v.1.15,2013-07-21 17:17:00,
2013-07-21 12:23:00,82.0,72.1,29.91,SE,141,7.0,13.0,72,0.00,,,0.59,946,Wunderground v.1.15,2013-07-21 17:23:00,
2013-07-21 12:29:00,82.3,71.5,29.91,SE,130,7.0,13.0,70,0.00,,,0.59,1025,Wunderground v.1.15,2013-07-21 17:29:00,
2013-07-21 12:35:00,83.2,73.2,29.91,South,185,6.0,13.0,72,0.00,,,0.59,1028,Wunderground v.1.15,2013-07-21 17:35:00,
2013-07-21 12:41:00,83.6,72.3,29.91,SSE,162,7.0,13.0,69,0.00,,,0.59,1034,Wunderground v.1.15,2013-07-21 17:41:00,
2013-07-21 12:47:00,83.3,72.5,29.91,SSE,168,6.0,13.0,70,0.00,,,0.59,536,Wunderground v.1.15,2013-07-21 17:47:00,
2013-07-21 12:53:00,83.1,72.3,29.91,SSE,160,5.0,5.0,70,0.00,,,0.59,1107,Wunderground v.1.15,2013-07-21 17:53:00,
2013-07-21 12:59:00,82.7,71.9,29.91,SSE,156,6.0,13.0,70,0.00,,,0.59,371,Wunderground v.1.15,2013-07-21 17:59:00,
2013-07-21 13:05:00,83.0,72.6,29.91,SSE,162,6.0,13.0,71,0.00,,,0.59,309,Wunderground v.1.15,2013-07-21 18:05:00,
2013-07-21 13:11:00,83.5,73.5,29.90,SSW,199,4.0,13.0,72,0.00,,,0.59,301,Wunderground v.1.15,2013-07-21 18:11:00,
2013-07-21 13:17:00,84.0,72.7,29.90,SSE,166,4.0,13.0,69,0.00,,,0.59,1071,Wunderground v.1.15,2013-07-21 18:17:00,
2013-07-21 13:23:00,84.0,71.9,29.90,South,177,5.0,5.0,67,0.00,,,0.59,309,Wunderground v.1.15,2013-07-21 18:23:00,
2013-07-21 13:29:00,82.7,71.1,29.89,SSE,163,6.0,13.0,68,0.00,,,0.59,406,Wunderground v.1.15,2013-07-21 18:29:00,
2013-07-21 13:35:00,83.8,73.0,29.89,SSE,147,6.0,13.0,70,0.00,,,0.59,1041,Wunderground v.1.15,2013-07-21 18:35:00,
2013-07-21 13:41:00,84.1,72.4,29.89,South,177,6.0,13.0,68,0.00,,,0.59,1004,Wunderground v.1.15,2013-07-21 18:41:00,
2013-07-21 13:47:00,83.5,72.3,29.89,SSE,158,5.0,13.0,69,0.00,,,0.59,410,Wunderground v.1.15,2013-07-21 18:47:00,
2013-07-21 13:53:00,84.3,72.6,29.89,South,177,7.0,7.0,68,0.00,,,0.59,359,Wunderground v.1.15,2013-07-21 18:53:00,
2013-07-21 13:59:00,84.1,72.4,29.89,SSE,162,6.0,13.0,68,0.00,,,0.59,253,Wunderground v.1.15,2013-07-21 18:59:00,
2013-07-21 14:05:00,83.2,72.4,29.89,SSW,197,5.0,13.0,70,0.00,,,0.59,1072,Wunderground v.1.15,2013-07-21 19:05:00,
2013-07-21 14:11:00,85.3,73.1,29.89,South,183,4.0,13.0,67,0.00,,,0.59,1085,Wunderground v.1.15,2013-07-21 19:11:00,
2013-07-21 14:17:00,85.3,73.5,29.88,SSE,155,4.0,13.0,68,0.00,,,0.59,410,Wunderground v.1.15,2013-07-21 19:17:00,
2013-07-21 14:23:00,85.7,73.0,29.88,South,191,4.0,4.0,66,0.00,,,0.59,1099,Wunderground v.1.15,2013-07-21 19:23:00,
2013-07-21 14:29:00,85.1,72.5,29.88,South,181,3.0,13.0,66,0.00,,,0.59,415,Wunderground v.1.15,2013-07-21 19:29:00,
2013-07-21 14:35:00,85.6,72.9,29.88,South,177,4.0,13.0,66,0.00,,,0.59,438,Wunderground v.1.15,2013-07-21 19:35:00,
2013-07-21 14:41:00,86.4,72.8,29.88,SSW,194,3.0,13.0,64,0.00,,,0.59,1065,Wunderground v.1.15,2013-07-21 19:41:00,
2013-07-21 14:47:00,86.0,72.4,29.87,SW,234,3.0,13.0,64,0.00,,,0.59,285,Wunderground v.1.15,2013-07-21 19:47:00,
2013-07-21 14:53:00,84.9,73.2,29.87,South,170,2.0,2.0,68,0.00,,,0.59,988,Wunderground v.1.15,2013-07-21 19:53:00,
2013-07-21 14:59:00,86.5,73.8,29.87,SSE,167,3.0,13.0,66,0.00,,,0.59,916,Wunderground v.1.15,2013-07-21 19:59:00,
2013-07-21 15:05:00,85.7,73.0,29.86,South,182,4.0,13.0,66,0.00,,,0.59,220,Wunderground v.1.15,2013-07-21 20:05:00,
2013-07-21 15:11:00,84.6,72.0,29.86,SSE,163,3.0,13.0,66,0.00,,,0.59,283,Wunderground v.1.15,2013-07-21 20:11:00,
2013-07-21 15:17:00,84.3,71.7,29.86,South,181,4.0,13.0,66,0.00,,,0.59,207,Wunderground v.1.15,2013-07-21 20:17:00,
2013-07-21 15:23:00,84.7,72.5,29.86,South,182,3.0,3.0,67,0.00,,,0.59,309,Wunderground v.1.15,2013-07-21 20:23:00,
2013-07-21 15:29:00,85.6,72.0,29.86,SSW,200,2.0,13.0,64,0.00,,,0.59,237,Wunderground v.1.15,2013-07-21 20:29:00,
2013-07-21 15:35:00,85.4,72.7,29.86,South,169,3.0,13.0,66,0.00,,,0.59,313,Wunderground v.1.15,2013-07-21 20:35:00,
2013-07-21 15:41:00,85.7,72.1,29.86,SSE,154,3.0,13.0,64,0.00,,,0.59,297,Wunderground v.1.15,2013-07-21 20:41:00,
2013-07-21 15:47:00,85.2,72.1,29.86,South,190,4.0,13.0,65,0.00,,,0.59,320,Wunderground v.1.15,2013-07-21 20:47:00,
2013-07-21 15:53:00,85.4,71.8,29.86,South,181,2.0,2.0,64,0.00,,,0.59,265,Wunderground v.1.15,2013-07-21 20:53:00,
2013-07-21 15:59:00,85.4,72.3,29.85,South,171,2.0,13.0,65,0.00,,,0.59,260,Wunderground v.1.15,2013-07-21 20:59:00,
2013-07-21 16:05:00,85.2,72.1,29.85,ESE,123,3.0,13.0,65,0.00,,,0.59,223,Wunderground v.1.15,2013-07-21 21:05:00,
2013-07-21 16:11:00,85.2,72.6,29.85,South,176,4.0,13.0,66,0.00,,,0.59,888,Wunderground v.1.15,2013-07-21 21:11:00,
2013-07-21 16:17:00,86.5,71.9,29.85,SSE,159,3.0,5.0,62,0.00,,,0.59,214,Wunderground v.1.15,2013-07-21 21:17:00,
2013-07-21 16:23:00,85.8,71.7,29.85,SSE,165,3.0,13.0,63,0.00,,,0.59,316,Wunderground v.1.15,2013-07-21 21:23:00,
2013-07-21 16:29:00,85.6,72.0,29.85,SSE,163,2.0,13.0,64,0.00,,,0.59,265,Wunderground v.1.15,2013-07-21 21:29:00,
2013-07-21 16:35:00,87.1,73.4,29.85,SSE,152,2.0,13.0,64,0.00,,,0.59,773,Wunderground v.1.15,2013-07-21 21:35:00,
2013-07-21 16:41:00,86.9,72.3,29.85,South,185,2.0,13.0,62,0.00,,,0.59,199,Wunderground v.1.15,2013-07-21 21:41:00,
2013-07-21 16:47:00,86.0,71.5,29.84,South,175,2.0,13.0,62,0.00,,,0.59,214,Wunderground v.1.15,2013-07-21 21:47:00,
2013-07-21 16:53:00,86.0,72.4,29.85,SSE,153,2.0,13.0,64,0.00,,,0.59,202,Wunderground v.1.15,2013-07-21 21:53:00,
2013-07-21 16:59:00,86.4,72.8,29.85,South,183,2.0,13.0,64,0.00,,,0.59,417,Wunderground v.1.15,2013-07-21 21:59:00,
2013-07-21 17:05:00,87.6,73.0,29.84,SSE,167,2.0,13.0,62,0.00,,,0.59,631,Wunderground v.1.15,2013-07-21 22:05:00,
2013-07-21 17:11:00,88.3,73.6,29.84,SE,127,4.0,13.0,62,0.00,,,0.59,659,Wunderground v.1.15,2013-07-21 22:11:00,
2013-07-21 17:17:00,88.2,73.0,29.84,SSE,163,6.0,13.0,61,0.00,,,0.59,666,Wunderground v.1.15,2013-07-21 22:17:00,
2013-07-21 17:23:00,87.7,73.5,29.84,SSE,156,5.0,5.0,63,0.00,,,0.59,633,Wunderground v.1.15,2013-07-21 22:23:00,
2013-07-21 17:29:00,88.0,72.4,29.85,South,170,5.0,13.0,60,0.00,,,0.59,663,Wunderground v.1.15,2013-07-21 22:29:00,
2013-07-21 17:35:00,87.3,71.7,29.84,SE,137,5.0,7.0,60,0.00,,,0.59,178,Wunderground v.1.15,2013-07-21 22:35:00,
2013-07-21 17:41:00,87.4,72.8,29.84,ESE,112,4.0,13.0,62,0.00,,,0.59,462,Wunderground v.1.15,2013-07-21 22:41:00,
2013-07-21 17:47:00,87.4,72.8,29.84,SSE,151,4.0,13.0,62,0.00,,,0.59,475,Wunderground v.1.15,2013-07-21 22:47:00,
2013-07-21 17:53:00,87.4,73.3,29.84,SE,129,5.0,5.0,63,0.00,,,0.59,455,Wunderground v.1.15,2013-07-21 22:53:00,
2013-07-21 17:59:00,87.2,72.6,29.83,ESE,114,4.0,13.0,62,0.00,,,0.59,436,Wunderground v.1.15,2013-07-21 22:59:00,
2013-07-21 18:05:00,87.1,72.5,29.83,ESE,123,5.0,13.0,62,0.00,,,0.59,413,Wunderground v.1.15,2013-07-21 23:05:00,
2013-07-21 18:11:00,87.0,72.9,29.83,SE,136,4.0,13.0,63,0.00,,,0.59,392,Wunderground v.1.15,2013-07-21 23:11:00,
2013-07-21 18:17:00,87.3,73.2,29.83,SE,128,5.0,13.0,63,0.00,,,0.59,378,Wunderground v.1.15,2013-07-21 23:17:00,
2013-07-21 18:23:00,87.0,72.4,29.83,ESE,117,5.0,13.0,62,0.00,,,0.59,360,Wunderground v.1.15,2013-07-21 23:23:00,
2013-07-21 18:29:00,86.9,72.8,29.83,SSE,147,5.0,13.0,63,0.00,,,0.59,345,Wunderground v.1.15,2013-07-21 23:29:00,
2013-07-21 18:35:00,87.0,72.9,29.83,ESE,108,5.0,13.0,63,0.00,,,0.59,329,Wunderground v.1.15,2013-07-21 23:35:00,
2013-07-21 18:41:00,86.9,72.8,29.83,SE,146,5.0,13.0,63,0.00,,,0.59,302,Wunderground v.1.15,2013-07-21 23:41:00,
2013-07-21 18:47:00,87.0,72.4,29.82,ESE,115,4.0,13.0,62,0.00,,,0.59,279,Wunderground v.1.15,2013-07-21 23:47:00,
2013-07-21 18:53:00,86.9,72.8,29.83,SE,127,4.0,4.0,63,0.00,,,0.59,271,Wunderground v.1.15,2013-07-21 23:53:00,
2013-07-21 18:59:00,86.8,72.2,29.83,ESE,122,4.0,13.0,62,0.00,,,0.59,255,Wunderground v.1.15,2013-07-21 23:59:00,
2013-07-21 19:05:00,86.6,73.0,29.83,SE,129,4.0,13.0,64,0.00,,,0.59,237,Wunderground v.1.15,2013-07-22 00:05:00,
2013-07-21 19:11:00,86.3,72.7,29.83,SE,137,4.0,13.0,64,0.00,,,0.59,213,Wunderground v.1.15,2013-07-22 00:11:00,
2013-07-21 19:17:00,86.0,72.4,29.83,ESE,117,5.0,13.0,64,0.00,,,0.59,202,Wunderground v.1.15,2013-07-22 00:17:00,
2013-07-21 19:23:00,86.0,72.4,29.83,ESE,120,5.0,13.0,64,0.00,,,0.59,176,Wunderground v.1.15,2013-07-22 00:23:00,
2013-07-21 19:29:00,85.9,72.8,29.82,SE,133,4.0,13.0,65,0.00,,,0.59,158,Wunderground v.1.15,2013-07-22 00:29:00,
2013-07-21 19:35:00,85.8,73.1,29.82,SE,133,3.0,6.0,66,0.00,,,0.59,141,Wunderground v.1.15,2013-07-22 00:35:00,
2013-07-21 19:41:00,85.4,72.3,29.83,SE,124,4.0,13.0,65,0.00,,,0.59,49,Wunderground v.1.15,2013-07-22 00:41:00,
2013-07-21 19:47:00,85.2,73.0,29.82,ESE,120,4.0,13.0,67,0.00,,,0.59,40,Wunderground v.1.15,2013-07-22 00:47:00,
2013-07-21 19:53:00,85.0,72.8,29.83,SE,143,4.0,4.0,67,0.00,,,0.59,37,Wunderground v.1.15,2013-07-22 00:53:00,
2013-07-21 19:59:00,84.7,72.5,29.83,SSE,151,3.0,13.0,67,0.00,,,0.59,33,Wunderground v.1.15,2013-07-22 00:59:00,
2013-07-21 20:05:00,84.5,72.8,29.83,SE,139,3.0,4.0,68,0.00,,,0.59,30,Wunderground v.1.15,2013-07-22 01:05:00,
2013-07-21 20:11:00,84.3,73.0,29.83,SSE,159,3.0,13.0,69,0.00,,,0.59,26,Wunderground v.1.15,2013-07-22 01:11:00,
2013-07-21 20:17:00,84.0,73.2,29.83,SE,143,3.0,13.0,70,0.00,,,0.59,23,Wunderground v.1.15,2013-07-22 01:17:00,
2013-07-21 20:23:00,83.8,73.0,29.83,SE,140,3.0,13.0,70,0.00,,,0.59,18,Wunderground v.1.15,2013-07-22 01:23:00,
2013-07-21 20:29:00,83.3,72.9,29.83,SE,125,3.0,13.0,71,0.00,,,0.59,14,Wunderground v.1.15,2013-07-22 01:29:00,
2013-07-21 20:35:00,83.1,73.1,29.83,SE,129,3.0,13.0,72,0.00,,,0.59,11,Wunderground v.1.15,2013-07-22 01:35:00,
2013-07-21 20:41:00,82.9,73.4,29.83,SE,131,3.0,13.0,73,0.00,,,0.59,5,Wunderground v.1.15,2013-07-22 01:41:00,
2013-07-21 20:47:00,82.3,73.2,29.83,ESE,122,3.0,13.0,74,0.00,,,0.59,0,Wunderground v.1.15,2013-07-22 01:47:00,
2013-07-21 20:53:00,81.9,73.2,29.83,SE,127,3.0,13.0,75,0.00,,,0.59,0,Wunderground v.1.15,2013-07-22 01:53:00,
2013-07-21 20:59:00,81.7,73.0,29.83,ESE,116,2.0,13.0,75,0.00,,,0.59,0,Wunderground v.1.15,2013-07-22 01:59:00,
2013-07-21 21:05:00,81.5,73.2,29.83,SE,127,3.0,13.0,76,0.00,,,0.59,0,Wunderground v.1.15,2013-07-22 02:05:00,
2013-07-21 21:11:00,81.5,73.2,29.83,SE,129,4.0,13.0,76,0.00,,,0.59,0,Wunderground v.1.15,2013-07-22 02:11:00,
2013-07-21 21:17:00,81.5,73.2,29.83,SE,130,4.0,13.0,76,0.00,,,0.59,0,Wunderground v.1.15,2013-07-22 02:17:00,
2013-07-21 21:23:00,81.4,73.1,29.83,SE,125,4.0,13.0,76,0.00,,,0.59,0,Wunderground v.1.15,2013-07-22 02:23:00,
2013-07-21 21:29:00,81.2,72.9,29.83,SE,125,4.0,13.0,76,0.00,,,0.59,0,Wunderground v.1.15,2013-07-22 02:29:00,
2013-07-21 21:35:00,81.0,72.7,29.83,SE,127,4.0,6.0,76,0.00,,,0.59,0,Wunderground v.1.15,2013-07-22 02:35:00,
2013-07-21 21:41:00,81.1,73.2,29.84,ESE,122,4.0,13.0,77,0.00,,,0.59,0,Wunderground v.1.15,2013-07-22 02:41:00,
2013-07-21 21:47:00,81.0,73.1,29.84,ESE,115,2.0,13.0,77,0.00,,,0.59,0,Wunderground v.1.15,2013-07-22 02:47:00,
2013-07-21 21:53:00,80.8,72.9,29.84,ESE,109,2.0,13.0,77,0.00,,,0.59,0,Wunderground v.1.15,2013-07-22 02:53:00,
2013-07-21 21:59:00,80.7,72.8,29.84,ESE,103,2.0,13.0,77,0.00,,,0.59,0,Wunderground v.1.15,2013-07-22 02:59:00,
2013-07-21 22:05:00,80.5,72.6,29.84,ESE,110,3.0,13.0,77,0.00,,,0.59,0,Wunderground v.1.15,2013-07-22 03:05:00,
2013-07-21 22:11:00,80.5,73.0,29.84,ESE,119,2.0,13.0,78,0.00,,,0.59,0,Wunderground v.1.15,2013-07-22 03:11:00,
2013-07-21 22:17:00,80.4,72.9,29.84,ESE,118,2.0,13.0,78,0.00,,,0.59,0,Wunderground v.1.15,2013-07-22 03:17:00,
2013-07-21 22:23:00,80.3,72.8,29.84,ESE,115,3.0,13.0,78,0.00,,,0.59,0,Wunderground v.1.15,2013-07-22 03:23:00,
2013-07-21 22:29:00,80.3,72.8,29.84,ESE,116,3.0,13.0,78,0.00,,,0.59,0,Wunderground v.1.15,2013-07-22 03:29:00,
2013-07-21 22:35:00,80.2,72.7,29.84,ESE,108,3.0,13.0,78,0.00,,,0.59,0,Wunderground v.1.15,2013-07-22 03:35:00,
2013-07-21 22:41:00,80.2,72.7,29.85,ESE,118,4.0,13.0,78,0.00,,,0.59,0,Wunderground v.1.15,2013-07-22 03:41:00,
2013-07-21 22:47:00,80.2,72.7,29.85,ESE,122,4.0,13.0,78,0.00,,,0.59,0,Wunderground v.1.15,2013-07-22 03:47:00,
2013-07-21 22:53:00,80.1,72.6,29.85,ESE,106,3.0,3.0,78,0.00,,,0.59,0,Wunderground v.1.15,2013-07-22 03:53:00,
2013-07-21 22:59:00,80.0,72.9,29.85,ESE,117,4.0,13.0,79,0.00,,,0.59,0,Wunderground v.1.15,2013-07-22 03:59:00,
2013-07-21 23:01:00,80.0,72.9,29.85,ESE,116,4.0,13.0,79,0.00,,,0.59,0,Wunderground v.1.15,2013-07-22 04:01:00,
2013-07-21 23:03:00,80.0,72.9,29.85,SE,126,4.0,13.0,79,0.00,,,0.59,0,Wunderground v.1.15,2013-07-22 04:03:00,
2013-07-21 23:09:00,79.9,72.8,29.85,ESE,111,4.0,13.0,79,0.00,,,0.59,0,Wunderground v.1.15,2013-07-22 04:09:00,
2013-07-21 23:11:00,79.8,72.7,29.85,SE,128,5.0,13.0,79,0.00,,,0.59,0,Wunderground v.1.15,2013-07-22 04:11:00,
2013-07-21 23:17:00,79.6,72.5,29.85,ESE,111,5.0,13.0,79,0.00,,,0.59,0,Wunderground v.1.15,2013-07-22 04:17:00,
2013-07-21 23:19:00,79.6,72.9,29.85,SE,124,5.0,13.0,80,0.00,,,0.59,0,Wunderground v.1.15,2013-07-22 04:19:00,
2013-07-21 23:25:00,79.5,72.8,29.85,SE,129,4.0,13.0,80,0.00,,,0.59,0,Wunderground v.1.15,2013-07-22 04:25:00,
2013-07-21 23:31:00,79.4,72.7,29.85,SE,125,4.0,13.0,80,0.00,,,0.59,0,Wunderground v.1.15,2013-07-22 04:31:00,
2013-07-21 23:37:00,79.3,72.6,29.85,ESE,118,4.0,13.0,80,0.00,,,0.59,0,Wunderground v.1.15,2013-07-22 04:37:00,
2013-07-21 23:43:00,79.3,72.6,29.85,SE,125,4.0,13.0,80,0.00,,,0.59,0,Wunderground v.1.15,2013-07-22 04:43:00,
2013-07-21 23:45:00,79.2,72.5,29.85,ESE,115,4.0,13.0,80,0.00,,,0.59,0,Wunderground v.1.15,2013-07-22 04:45:00,
2013-07-21 23:51:00,79.1,72.4,29.85,SE,127,4.0,13.0,80,0.00,,,0.59,0,Wunderground v.1.15,2013-07-22 04:51:00,
2013-07-21 23:57:00,78.9,72.6,29.85,SE,126,5.0,7.0,81,0.00,,,0.59,0,Wunderground v.1.15,2013-07-22 04:57:00,